Find Starlink 32229

NORAD ID: 60436 Int'l Des: 2024-144 Owner: SPXS Country: US Constellation: starlink operational
LEOCIRCULAR

当前视图

正在加载3D地球...

About Starlink 32229

Starlink 32229 (NORAD 60436) is a starlink constellation satellite (v2 mini) launched Aug 12, 2024 by SPXS of US. It operates in LEO, CIRCULAR orbit with a mass of 730.00 kg.

关于 Starlink 32229

正在加载描述...

即将过境

Passes for default location (London). Set your location on the main map for personalized predictions.

高度历史

Loading altitude history...

两行轨道根数

1 60436U 24144M 26168.10625397 .00000301 00000-0 20040-4 0 9994
2 60436 53.1611 113.6970 0001378 94.6710 265.4450 15.34387671104557
Epoch: Jun 17, 2026 • Age: 25 hours

当前状态

高度 482.1 km
速度 7.62 km/s
星下点 -52.98°S, 73.52°E
发射日期 Aug 12, 2024
运行时间 1.8 years
类型 internet

技术详情

分类 Payload
质量 730.00 kg
干质量 700.00 kg
总质量 730.00 kg
长度 0.30 m
直径 4.10 m
跨度 29.00 m
形状 Box + pan
制造商 SPXS
平台类型 Starlink V2M
阶段状态 In Orbit
所有者/国家 SPXS/US

Most Searched